Weather in Lukow

Poland     51°55′57″N   22°23′31″E
temp.,
°C
wind,
m/s
gust,
m/s
humid.,
%
clouds,
%
prec.,
mm/h
press.,
hPa
HPBL,
m
1 august, sun
sun123:00+17ssw48950 0.7 1008146
02:00+17sw35945 0.7 100988
05:00+16wsw2291100 0.0 100929
08:00+20w117323 0.0 1009246
11:00+26sse2347100 0.0 10081212
14:00+25sw3546100 0.1 1007823
17:00+20s2490100 4.7 1006342
20:00+18se4896100 11.4 1006414
2 august, mon
mon223:00+18sse2494100 2.5 1004172
02:00+17sw3596100 3.2 1004293
05:00+14nw51195100 0.6 1005538
08:00+15nw51094100 1.8 1007521
11:00+16w5994100 0.3 1009528
14:00+19wsw5874100 0.3 10091048
17:00+21w68575 0.6 10091584
20:00+17wnw498017 1.1 1010239
3 august, tue
tue323:00+15wsw4118482 0.0 1012253
02:00+13wsw410825 0.0 1013202
05:00+12wsw36825 0.0 1014116
08:00+17w5765100 0.0 1015410
11:00+21w674652 0.0 10152035
14:00+20w4648100 0.0 1015864
17:00+20w465157 0.0 1015685
20:00+17ne005786 0.0 101511
4 august, wed
wed423:00+15sse3362100 0.0 101634
02:00+14sse346992 0.0 101667
05:00+15sse3765100 0.0 1015168
08:00+14s119199 2.1 101695
11:00+18se247697 0.5 1016400
14:00+22se4461100 0.5 1015993
17:00+23s2258100 0.4 10141165
20:00+20s2269100 0.5 101320
5 august, thu
thu523:00+18sse1175100 0.1 101311
02:00+16ese2288100 0.2 101324
05:00+15se1190100 0.0 101211
08:00+19ese2273100 0.0 1012228
11:00+23e3360100 0.0 1011798
14:00+22ene3664100 0.0 1008176
17:00+20n5883100 1.3 1007277
20:00+17n4597100 5.9 1007309